EW1179 Weather Reports


Display with metric or nautical units.
time (UTC)temp
F
wind
direction
speed
MPH
gust
MPH
rain 1hr
in
rain 24hr
in
rain mn
in
humidity
%
barometer
mb
20260904030036 64 114 0.0 7.0 0.00 0.00 0.00 62 1009.4
20260904024536 64 22 0.0 5.0 0.00 0.00 0.00 63 1009.3
20260904023035 65 53 0.0 3.0 0.00 0.00 0.00 60 1009.2
20260904021535 66 79 0.0 4.0 0.00 0.00 0.00 61 1009.2
20260904020035 67 90 0.0 1.0 0.00 0.00 0.00 57 1009.1
20260904014533 67 286 0.0 4.0 0.00 0.00 0.00 54 1009.2
20260904013038 68 189 0.0 7.0 0.00 0.00 0.00 56 1009.2
20260904011536 69 227 0.0 11.0 0.00 0.00 0.00 55 1009.2
20260904010031 69 240 3.0 14.0 0.00 0.00 0.00 56 1009.3
20260904004534 70 214 2.0 8.0 0.00 0.00 0.00 56 1009.4
20260904003033 70 241 0.0 12.0 0.00 0.00 0.00 54 1009.4
20260904001531 71 215 2.0 9.0 0.00 0.00 0.00 54 1009.3
20260904000029 72 275 1.0 7.0 0.00 0.00 0.00 54 1009.4
20260903234526 73 250 1.0 7.0 0.00 0.00 0.00 53 1009.6
20260903233026 74 248 1.0 7.0 0.00 0.00 0.00 53 1009.6
20260903231526 73 240 2.0 11.0 0.00 0.00 0.00 52 1009.7
20260903230035 73 258 0.0 12.0 0.00 0.00 0.00 51 1009.8
20260903224521 74 247 3.0 13.0 0.00 0.00 0.00 51 1010.0
20260903223025 75 201 3.0 13.0 0.00 0.00 0.00 50 1010.3
20260903221518 76 219 2.0 11.0 0.00 0.00 0.00 49 1010.2
20260903220025 77 211 3.0 11.0 0.00 0.00 0.00 48 1010.4
20260903214526 78 284 4.0 12.0 0.00 0.00 0.00 47 1010.6
20260903213014 78 250 2.0 12.0 0.00 0.00 0.00 46 1010.6
20260903211526 78 215 2.0 9.0 0.00 0.00 0.00 48 1010.8
20260903210017 79 250 2.0 7.0 0.00 0.00 0.00 46 1010.8
20260903204511 79 207 1.0 8.0 0.00 0.00 0.00 46 1010.8
20260903203010 80 267 1.0 8.0 0.00 0.00 0.00 45 1011.0
20260903201511 79 221 1.0 7.0 0.00 0.00 0.00 46 1011.0
20260903200009 80 225 0.0 8.0 0.00 0.00 0.00 46 1011.1
20260903194503 79 118 0.0 4.0 0.00 0.00 0.00 44 1011.3
20260903193101 79 109 0.0 3.0 0.00 0.00 0.00 44 1011.4
20260903191557 77 202 0.0 3.0 0.00 0.00 0.00 46 1011.8
20260903190052 76 50 0.0 3.0 0.00 0.00 0.00 48 1012.1
20260903184548 74 98 0.0 4.0 0.00 0.00 0.00 50 1012.4
20260903183043 73 90 0.0 2.0 0.00 0.00 0.00 50 1012.8
20260903181539 72 113 0.0 7.0 0.00 0.00 0.00 52 1012.8
20260903180040 71 137 0.0 3.0 0.00 0.00 0.00 55 1012.9
20260903174530 69 67 0.0 0.0 0.00 0.00 0.00 58 1013.0
20260903173026 67 162 0.0 3.0 0.00 0.00 0.00 61 1013.1
20260903171522 66 321 0.0 4.0 0.00 0.00 0.00 64 1013.2
20260903170019 64 65 0.0 0.0 0.00 0.00 0.00 69 1013.4
20260903164513 63 292 0.0 4.0 0.00 0.00 0.00 72 1013.4
20260903163009 61 22 0.0 3.0 0.00 0.00 0.00 76 1013.7
20260903161505 60 57 0.0 4.0 0.00 0.00 0.00 78 1013.8
20260903160005 59 333 1.0 5.0 0.00 0.00 0.00 80 1013.9
20260903154601 57 82 0.0 0.0 0.00 0.00 0.00 84 1014.0
20260903153107 56 141 0.0 1.0 0.00 0.00 0.00 87 1014.1
20260903151551 54 187 0.0 0.0 0.00 0.00 0.00 90 1014.2
20260903150101 50 271 0.0 0.0 0.00 0.00 0.00 89 1014.2
20260903144546 49 271 0.0 0.0 0.00 0.00 0.00 88 1014.2
20260903143056 49 271 0.0 0.0 0.00 0.00 0.00 88 1014.2
20260903141545 48 271 0.0 0.0 0.00 0.00 0.00 88 1013.9
20260903140038 47 216 0.0 0.0 0.00 0.00 0.00 87 1013.7
20260903134536 47 102 0.0 0.0 0.00 0.00 0.00 86 1013.6
20260903133035 48 76 0.0 0.0 0.00 0.00 0.00 86 1013.6
20260903131534 48 318 0.0 0.0 0.00 0.00 0.00 86 1013.5
20260903130033 48 318 0.0 0.0 0.00 0.00 0.00 86 1013.5
20260903124533 48 318 0.0 0.0 0.00 0.00 0.00 85 1013.5
20260903123030 49 318 0.0 0.0 0.00 0.00 0.00 85 1013.4
20260903121528 49 318 0.0 0.0 0.00 0.00 0.00 85 1013.4
20260903120030 49 318 0.0 0.0 0.00 0.00 0.00 85 1013.5
20260903114528 50 318 0.0 0.0 0.00 0.00 0.00 84 1013.5
20260903113028 50 318 0.0 0.0 0.00 0.00 0.00 84 1013.5
20260903111531 51 318 0.0 0.0 0.00 0.00 0.00 84 1013.5
20260903110020 51 318 0.0 0.0 0.00 0.00 0.00 84 1013.5
20260903104520 51 318 0.0 0.0 0.00 0.00 0.00 83 1013.6
20260903103017 52 318 0.0 0.0 0.00 0.00 0.00 83 1013.6
20260903101524 52 318 0.0 0.0 0.00 0.00 0.00 83 1013.7
20260903100015 53 46 0.0 0.0 0.00 0.00 0.00 82 1013.6
20260903094511 53 46 0.0 0.0 0.00 0.00 0.00 82 1013.7
20260903093010 53 46 0.0 0.0 0.00 0.00 0.00 81 1013.9
20260903091508 54 46 0.0 0.0 0.00 0.00 0.00 80 1013.9
20260903090006 54 46 0.0 0.0 0.00 0.00 0.00 80 1014.0
20260903084507 55 46 0.0 0.0 0.00 0.00 0.00 79 1014.2
20260903083002 55 159 0.0 0.0 0.00 0.00 0.00 78 1014.3
20260903080056 55 103 0.0 0.0 0.00 0.00 0.00 76 1014.3
20260903074556 56 254 0.0 0.0 0.00 0.00 0.00 75 1014.2
20260903073053 56 263 0.0 0.0 0.00 0.00 0.00 76 1014.2
20260903071555 56 287 0.0 0.0 0.00 0.00 0.00 74 1014.1
20260903070048 56 292 0.0 0.0 0.00 0.00 0.00 73 1014.0
20260903064550 57 292 0.0 0.0 0.00 0.00 0.00 73 1014.0
20260903063050 58 292 0.0 0.0 0.00 0.00 0.00 72 1014.1
20260903061546 58 292 0.0 0.0 0.00 0.00 0.00 72 1014.1
20260903060046 59 297 0.0 0.0 0.00 0.00 0.00 72 1014.2
20260903054548 60 134 0.0 0.0 0.00 0.00 0.00 72 1014.3
20260903053045 60 186 0.0 0.0 0.00 0.00 0.00 72 1014.2
20260903051545 61 53 0.0 0.0 0.00 0.00 0.00 72 1014.3
20260903050047 61 43 0.0 0.0 0.00 0.00 0.00 71 1014.3
20260903044547 62 348 0.0 0.0 0.00 0.00 0.00 71 1014.2
20260903043042 62 19 0.0 0.0 0.00 0.00 0.00 71 1014.1
20260903041547 62 159 0.0 2.0 0.00 0.00 0.00 71 1013.9
20260903040042 63 38 0.0 3.0 0.00 0.00 0.00 71 1013.7
20260903034541 63 165 0.0 8.0 0.00 0.00 0.00 72 1013.5
20260903033041 63 298 0.0 7.0 0.00 0.00 0.00 71 1013.1
20260903031546 64 147 0.0 0.0 0.00 0.00 0.00 70 1013.1